| time (UTC) | temp C | wind direction | speed KPH | gust KPH | rain 1hr cm | rain 24hr cm | rain mn cm | humidity % | barometer mb |
| 20260503021525 | 24 | 174 | 11.3 | 20.9 | 0.00 | 0.00 | 0.00 | 71 | 1020.6 |
| 20260503020045 | 24 | 167 | 6.4 | 16.1 | 0.00 | 0.00 | 0.00 | 73 | 1020.8 |
| 20260503014520 | 24 | 174 | 8.0 | 17.7 | 0.00 | 0.00 | 0.00 | 72 | 1021.0 |
| 20260503013050 | 24 | 155 | 8.0 | 20.9 | 0.00 | 0.00 | 0.00 | 73 | 1021.2 |
| 20260503011540 | 24 | 176 | 9.7 | 22.5 | 0.00 | 0.00 | 0.00 | 71 | 1021.4 |
| 20260503010122 | 24 | 174 | 8.0 | 16.1 | 0.00 | 0.00 | 0.00 | 71 | 1021.5 |
| 20260503004532 | 23 | 176 | 6.4 | 14.5 | 0.00 | 0.00 | 0.00 | 73 | 1021.8 |
| 20260503003054 | 24 | 167 | 3.2 | 14.5 | 0.00 | 0.00 | 0.00 | 73 | 1021.9 |
| 20260503001521 | 24 | 108 | 6.4 | 14.5 | 0.00 | 0.00 | 0.00 | 71 | 1021.8 |
| 20260503000044 | 23 | 175 | 4.8 | 16.1 | 0.00 | 0.00 | 0.00 | 74 | 1022.0 |
| 20260502234517 | 23 | 175 | 6.4 | 16.1 | 0.00 | 0.00 | 0.00 | 75 | 1022.0 |
| 20260502233045 | 23 | 259 | 1.6 | 9.7 | 0.00 | 0.00 | 0.00 | 75 | 1022.1 |
| 20260502231555 | 22 | 190 | 3.2 | 11.3 | 0.00 | 0.00 | 0.00 | 76 | 1022.0 |
| 20260502230038 | 22 | 175 | 6.4 | 11.3 | 0.00 | 0.00 | 0.00 | 78 | 1022.0 |
| 20260502224504 | 22 | 176 | 6.4 | 14.5 | 0.00 | 0.00 | 0.00 | 79 | 1021.9 |
| 20260502223045 | 21 | 184 | 4.8 | 11.3 | 0.00 | 0.00 | 0.00 | 80 | 1021.9 |
| 20260502221603 | 20 | 191 | 6.4 | 12.9 | 0.00 | 0.00 | 0.00 | 80 | 1021.7 |
| 20260502220051 | 20 | 202 | 6.4 | 14.5 | 0.00 | 0.00 | 0.00 | 82 | 1021.5 |
| 20260502214551 | 19 | 183 | 6.4 | 12.9 | 0.00 | 0.00 | 0.00 | 84 | 1021.5 |
| 20260502213028 | 18 | 174 | 4.8 | 12.9 | 0.00 | 0.00 | 0.00 | 85 | 1021.3 |
| 20260502211544 | 18 | 176 | 3.2 | 11.3 | 0.00 | 0.00 | 0.00 | 85 | 1021.2 |
| 20260502210048 | 18 | 178 | 4.8 | 12.9 | 0.00 | 0.05 | 0.00 | 86 | 1021.2 |
| 20260502204509 | 17 | 181 | 4.8 | 12.9 | 0.00 | 0.05 | 0.00 | 86 | 1021.1 |
| 20260502203055 | 17 | 183 | 6.4 | 11.3 | 0.00 | 0.05 | 0.00 | 87 | 1021.0 |
| 20260502201512 | 17 | 180 | 6.4 | 11.3 | 0.00 | 0.05 | 0.00 | 87 | 1020.9 |
| 20260502200043 | 17 | 175 | 6.4 | 11.3 | 0.00 | 0.05 | 0.00 | 88 | 1020.7 |
| 20260502194514 | 17 | 197 | 6.4 | 16.1 | 0.00 | 0.05 | 0.00 | 88 | 1020.5 |
| 20260502193044 | 17 | 226 | 4.8 | 11.3 | 0.00 | 0.05 | 0.00 | 88 | 1020.4 |
| 20260502191506 | 17 | 189 | 4.8 | 12.9 | 0.00 | 0.05 | 0.00 | 87 | 1020.3 |
| 20260502190036 | 18 | 196 | 6.4 | 11.3 | 0.00 | 0.05 | 0.00 | 88 | 1020.3 |
| 20260502184556 | 18 | 207 | 3.2 | 11.3 | 0.00 | 0.05 | 0.00 | 88 | 1020.4 |
| 20260502183028 | 18 | 179 | 4.8 | 11.3 | 0.00 | 0.05 | 0.00 | 88 | 1020.4 |
| 20260502181552 | 18 | 204 | 6.4 | 11.3 | 0.00 | 0.05 | 0.00 | 89 | 1020.4 |
| 20260502163038 | 19 | 202 | 1.6 | 6.4 | 0.00 | 0.05 | 0.00 | 83 | 1020.7 |
| 20260502161554 | 20 | 190 | 1.6 | 8.0 | 0.00 | 0.05 | 0.00 | 80 | 1020.7 |
| 20260502151517 | 22 | 167 | 8.0 | 16.1 | 0.00 | 0.05 | 0.00 | 72 | 1021.0 |
| 20260502123100 | 22 | 112 | 6.4 | 17.7 | 0.00 | 0.15 | 0.05 | 75 | 1021.9 |
| 20260502123009 | 22 | 122 | 4.8 | 17.7 | 0.00 | 0.15 | 0.05 | 75 | 1022.0 |
| 20260502121524 | 22 | 96 | 9.7 | 19.3 | 0.00 | 0.15 | 0.05 | 75 | 1022.1 |
| 20260502120106 | 22 | 91 | 6.4 | 17.7 | 0.00 | 0.25 | 0.05 | 74 | 1022.0 |
| 20260502114617 | 22 | 125 | 9.7 | 22.5 | 0.00 | 0.25 | 0.05 | 75 | 1022.0 |
| 20260502113043 | 22 | 122 | 6.4 | 19.3 | 0.00 | 0.25 | 0.05 | 76 | 1022.0 |
| 20260502111510 | 22 | 117 | 9.7 | 20.9 | 0.00 | 0.25 | 0.05 | 75 | 1021.9 |
| 20260502110036 | 22 | 99 | 11.3 | 25.7 | 0.00 | 0.38 | 0.05 | 76 | 1022.0 |
| 20260502104558 | 22 | 102 | 8.0 | 17.7 | 0.00 | 0.38 | 0.05 | 76 | 1021.9 |
| 20260502103037 | 22 | 114 | 6.4 | 17.7 | 0.00 | 0.38 | 0.05 | 74 | 1022.1 |
| 20260502101522 | 22 | 122 | 8.0 | 19.3 | 0.00 | 0.38 | 0.05 | 75 | 1022.0 |
| 20260502100108 | 22 | 171 | 9.7 | 19.3 | 0.00 | 0.46 | 0.05 | 76 | 1021.9 |
| 20260502091513 | 22 | 115 | 8.0 | 22.5 | 0.00 | 0.46 | 0.05 | 77 | 1021.1 |
| 20260502071519 | 22 | 84 | 8.0 | 19.3 | 0.00 | 0.46 | 0.05 | 78 | 1019.9 |
| 20260502070100 | 23 | 89 | 8.0 | 20.9 | 0.00 | 0.46 | 0.05 | 77 | 1019.8 |
| 20260502064533 | 23 | 127 | 12.9 | 24.1 | 0.00 | 0.46 | 0.05 | 77 | 1019.8 |
| 20260502063124 | 23 | 97 | 9.7 | 20.9 | 0.00 | 0.46 | 0.05 | 76 | 1019.7 |
| 20260502061519 | 23 | 103 | 9.7 | 24.1 | 0.00 | 0.46 | 0.05 | 76 | 1019.9 |
| 20260502060025 | 23 | 133 | 9.7 | 19.3 | 0.00 | 0.46 | 0.05 | 75 | 1020.0 |
| 20260502054545 | 23 | 110 | 6.4 | 24.1 | 0.00 | 0.46 | 0.05 | 77 | 1019.8 |
| 20260502053009 | 23 | 139 | 8.0 | 19.3 | 0.00 | 0.46 | 0.05 | 77 | 1019.9 |
| 20260502051511 | 24 | 116 | 11.3 | 30.6 | 0.00 | 0.46 | 0.05 | 75 | 1019.9 |
| 20260502050055 | 25 | 103 | 8.0 | 19.3 | 0.00 | 0.46 | 0.05 | 74 | 1020.0 |
| 20260502050004 | 25 | 122 | 8.0 | 19.3 | 0.00 | 0.46 | 0.05 | 74 | 1019.8 |
| 20260502044552 | 24 | 96 | 9.7 | 24.1 | 0.00 | 0.46 | 0.05 | 74 | 1019.9 |
| 20260502043017 | 25 | 116 | 12.9 | 25.7 | 0.00 | 0.46 | 0.05 | 74 | 1019.9 |
| 20260502041553 | 25 | 187 | 8.0 | 20.9 | 0.00 | 0.46 | 0.05 | 74 | 1019.9 |
| 20260502040009 | 25 | 174 | 11.3 | 20.9 | 0.00 | 0.46 | 0.05 | 75 | 1020.0 |
| 20260502034541 | 25 | 112 | 11.3 | 22.5 | 0.00 | 0.46 | 0.05 | 72 | 1020.1 |
| 20260502033009 | 25 | 91 | 9.7 | 24.1 | 0.00 | 0.46 | 0.05 | 73 | 1020.0 |
| 20260502031539 | 24 | 114 | 9.7 | 19.3 | 0.00 | 0.46 | 0.05 | 74 | 1020.1 |
| 20260502030009 | 25 | 162 | 4.8 | 29.0 | 0.00 | 0.46 | 0.05 | 73 | 1020.3 |
| 20260502024539 | 25 | 163 | 9.7 | 25.7 | 0.00 | 0.46 | 0.05 | 74 | 1020.5 |
| 20260502023009 | 25 | 87 | 14.5 | 24.1 | 0.00 | 0.46 | 0.05 | 73 | 1020.9 |